Location: Bastelaar
(51.0950°N, 3.8602°E)
Time: 02:30:29
(UTC+00:00)

ARIANE 6 FM1 Upper Stage - Pass Details

Date: 25 January 2026
Orbit: 522 x 609 km, 62.0° (Epoch: 13 February)

Event Time Altitude Azimuth Distance (km) Brightness Sun altitude
Rises 17:32:36 0° 199° (SSW) 2,706 6.7 -10.8°
Reaches altitude 10° 17:34:58 10° 190° (S) 1,803 5.6 -11.2°
Maximum altitude 17:38:36 33° 126° (SE) 915 3.4 -11.8°
Enters shadow 17:40:51 19° 74° (ENE) 1,320 3.9 -12.1°
